Location: Palmerston North
(40.3500°S, 175.6170°E)
Time: 03:30:40
(UTC+13:00)

Cosmos 2263 Rocket - Pass Details

Date: 24 January 2019
Orbit: 824 x 848 km, 71.0° (Epoch: 21 February)

Event Time Altitude Azimuth Distance (km) Brightness Sun altitude
Rises 21:36:22 0° 200° (SSW) 3,411 6.4 -9.5°
Reaches altitude 10° 21:38:54 10° 195° (SSW) 2,475 5.4 -9.9°
Maximum altitude 21:44:28 54° 117° (ESE) 1,027 2.5 -10.7°
Enters shadow 21:49:07 15° 43° (NE) 2,147 3.7 -11.4°
